Showing default

HISPASAT 36W-1, 41942

Orbit data source: Space-Track

HISPASAT 36W-1, 41942 is a payload satellite owned by Hispasat (ES) in GEO that was launched on Sat, 28 Jan 2017 UTC via a SOYUZ-ST-B launch vehicle from the French Guiana (FRGUI). Payload-class satellites include a variety of spacecraft equipped with specific instruments for various scientific and technological missions. These include communications satellites like Starlink; space stations such as the ISS; scientific satellites like the Hubble; Earth observation satellites from companies like Planet Labs, Umbra, and HawkEye 360; GPS; miniature CubeSats for education and research; and military/defense satellites.

Not visible in the next 10 days
Identifier
41942, 2017-006A
Orbit
GEO
Country
Flag of ESES / SPN
Related business
Manufacturer
OHB
Mission
Operational Commercial Communications
Bus & Motor
SMALLGEO, S400
Mass
3,220 kg wet, 1,700 kg dry
Launch date (UTC)
2017-01-28 (9 years ago)
Launch vehicle
SOYUZ-ST-B
Launch site
French Guiana (FRGUI)
Object type
Payload
Rocket body
Debris
Shape & HBR
Box + 2 Pan, 10.4 m
Radar Cross Section
23.149 m², Large (>1 m²)

Expand to show TLE details & history
Last TLE update: 5 hours ago

TLE from 5 hours ago
0 HISPASAT 36W-1
1 41942U 17006A   26126.18390573 -.00000237  00000-0  00000+0 0  9999
2 41942   0.0071 286.4199 0000956 117.2913 210.5562  1.00270717 33825
Epoch: 2026-05-06T04:24Z
TLE epoch observation values (Epoch: 2026-05-06T04:24:49.455Z)
Latitude
-0.01335°
Longitude
-35.9991°
Altitude
35,789.875 km
Speed
3.074 km/s
True Right ascension
16h 57m 01s
True Declination
0° 00' 48"
Sunlit
Object was in daylight at epoch
Visualization orbit readout
Latitude
Unknown
Longitude
Unknown
Altitude
Unknown
Speed
Unknown
Apparent Right ascension
Unknown
Apparent Declination
Unknown
Sunlit
N/A
Visualization observer readout
Local Sidereal Time
17:22:37
Azimuth
Unknown
Elevation
Unknown
Doppler factor
Unknown
Orbital elements
Apogee altitude
35,791.996 km
Perigee altitude
35,783.934 km
Semi-major axis
42,166.102 km
Eccentricity
0.0001
Inclination
0.0071°
RAAN
286.4199°
Arg. of periapsis
117.2913°
True anomaly
210.55063°
Mean anomaly
210.5562°
Eccentric anomaly
210.55342°
Mean motion
0.25067 °/min
Orbital period
1,436.17 mins
BSTAR
0
Loading maneuver chart data...
Computing Atmospheric mass density...
Loading historical data...
Loading historical data...
Loading historical data...
Loading historical data...
Loading historical data...
Loading historical data...
Loading historical data...
Other satellites on launch #6 in the year 2017 (2017-01-28 UTC)

Documentation

Showing up to 5 results
|